CW3224 Weather Reports


time (UTC)temp
F
wind
direction
speed
knots
gust
knots
rain 1hr
in
rain 24hr
in
rain mn
in
humidity
%
barometer
mb
20260510231837 58 164 0.0 0.0 0.01 0.10 0.06 87 1012.1
20260510230837 58 154 0.0 0.0 0.05 0.11 0.06 85 1011.8
20260510225836 59 153 0.0 0.0 0.05 0.12 0.06 83 1011.8
20260510224836 59 153 0.0 0.0 0.05 0.12 0.06 82 1011.8
20260510223826 60 154 0.0 0.0 0.05 0.13 0.06 81 1011.9
20260510223309 61 301 0.0 1.7 0.05 0.14 0.06 80 1011.8
20260510222313 63 270 2.6 7.0 0.04 0.14 0.05 81 1011.8
20260510220826 64 273 0.0 3.5 0.00 0.10 0.01 82 1010.8
20260510215825 64 301 0.0 0.0 0.00 0.11 0.01 81 1010.6
20260510214826 64 301 0.0 0.0 0.01 0.11 0.01 81 1010.6
20260510213824 64 301 0.0 0.0 0.01 0.12 0.01 78 1010.5
20260510212823 64 301 0.0 0.9 0.01 0.14 0.01 80 1010.7
20260510211825 65 33 0.9 2.6 0.01 0.18 0.01 80 1010.7
20260510210824 65 301 1.7 6.1 0.01 0.23 0.01 77 1010.8
20260510210306 68 301 0.9 4.3 0.01 0.26 0.01 74 1010.7
20260510204824 68 301 0.0 0.0 0.00 0.28 0.00 71 1010.7
20260510203822 69 301 0.0 0.0 0.00 0.30 0.00 70 1010.4
20260510203301 69 301 0.9 3.5 0.00 0.31 0.00 69 1010.2
20260510202256 69 301 1.7 5.2 0.00 0.32 0.00 65 1010.2
20260510200821 70 301 3.5 9.6 0.00 0.32 0.00 64 1010.2
20260510195822 70 301 3.5 7.8 0.00 0.32 0.00 62 1010.2
20260510194811 71 301 2.6 6.1 0.00 0.33 0.00 61 1010.2
20260510193811 71 201 1.7 7.0 0.00 0.33 0.00 62 1010.2
20260510192811 71 177 5.2 10.4 0.00 0.33 0.00 59 1010.5
20260510191812 72 199 3.5 11.3 0.00 0.33 0.00 61 1010.5
20260510190811 71 220 3.5 10.4 0.00 0.33 0.00 62 1010.5
20260510190255 72 216 3.5 9.6 0.00 0.33 0.00 59 1010.6
20260510184757 72 138 4.3 11.3 0.00 0.33 0.00 63 1010.6
20260510183757 71 186 3.5 10.4 0.00 0.33 0.00 62 1010.7
20260510182757 71 200 3.5 11.3 0.00 0.33 0.00 61 1010.7
20260510182234 72 150 3.5 13.0 0.00 0.33 0.00 63 1010.7
20260510180757 71 139 4.3 9.6 0.00 0.33 0.00 66 1010.8
20260510175757 70 126 4.3 13.0 0.00 0.33 0.00 64 1010.9
20260510174758 71 211 3.5 9.6 0.00 0.34 0.00 65 1010.9
20260510173759 70 150 4.3 10.4 0.00 0.34 0.00 65 1011.3
20260510173256 69 222 4.3 8.7 0.00 0.35 0.00 69 1011.3
20260510173154 69 175 4.3 12.2 0.00 0.35 0.00 66 1011.3
20260510170758 69 211 1.7 7.0 0.00 0.36 0.00 68 1011.4
20260510165753 69 235 3.5 7.8 0.00 0.36 0.00 68 1011.4
20260510164753 69 220 2.6 7.8 0.00 0.37 0.00 69 1011.4
20260510163753 69 241 3.5 10.4 0.00 0.37 0.00 70 1011.7
20260510162751 69 220 2.6 8.7 0.00 0.38 0.00 69 1011.8
20260510162226 68 124 3.5 7.8 0.00 0.38 0.00 70 1011.8
20260510160750 67 301 3.5 10.4 0.00 0.39 0.00 73 1011.8
20260510155749 67 182 2.6 7.8 0.00 0.40 0.00 71 1011.8
20260510154749 66 301 1.7 4.3 0.00 0.40 0.00 76 1011.8
20260510153749 65 164 1.7 6.1 0.00 0.41 0.00 75 1012.0
20260510152749 64 154 1.7 5.2 0.00 0.41 0.00 80 1012.1
20260510151750 63 301 2.6 7.0 0.00 0.41 0.00 81 1012.1
20260510151225 61 123 2.6 6.1 0.00 0.41 0.00 81 1012.2
20260510145738 60 120 2.6 7.0 0.00 0.42 0.00 84 1012.2
20260510144736 59 301 0.9 4.3 0.00 0.42 0.00 86 1012.2
20260510143738 58 301 1.7 5.2 0.00 0.42 0.00 87 1012.3
20260510142735 57 143 0.9 3.5 0.00 0.43 0.00 89 1012.4
20260510141735 56 301 1.7 5.2 0.00 0.44 0.00 90 1012.4
20260510140736 56 301 0.9 4.3 0.00 0.44 0.00 90 1012.3
20260510135736 55 301 0.9 3.5 0.00 0.45 0.00 92 1012.3
20260510135150 54 301 0.9 3.5 0.00 0.46 0.00 94 1012.3
20260510134804 55 301 1.7 4.3 0.00 0.45 0.00 93 1012.3
20260510132733 54 301 1.7 5.2 0.00 0.47 0.00 94 1012.4
20260510131734 54 209 0.9 3.5 0.00 0.47 0.00 95 1012.4
20260510130733 53 301 0.9 3.5 0.00 0.47 0.00 94 1012.3
20260510125728 53 301 0.0 0.0 0.00 0.47 0.00 95 1012.4
20260510124725 53 301 0.0 2.6 0.00 0.48 0.00 95 1012.4
20260510123722 53 301 0.9 3.5 0.00 0.48 0.00 95 1012.3
20260510122720 52 301 2.6 7.0 0.00 0.48 0.00 95 1012.4
20260510121721 53 301 1.7 5.2 0.00 0.48 0.00 95 1012.4
20260510120715 52 301 1.7 4.3 0.00 0.48 0.00 95 1012.3
20260510115715 52 301 1.7 3.5 0.00 0.48 0.00 95 1012.3
20260510114714 51 301 0.9 4.3 0.00 0.48 0.00 95 1012.3
20260510113713 51 301 1.7 3.5 0.00 0.48 0.00 95 1012.1
20260510112713 50 301 0.9 3.5 0.00 0.48 0.00 95 1012.2
20260510111711 50 200 0.9 1.7 0.00 0.48 0.00 95 1012.2
20260510110710 50 202 0.9 4.3 0.00 0.48 0.00 95 1012.0
20260510105711 50 142 0.9 3.5 0.00 0.48 0.00 95 1011.8
20260510104710 50 175 0.9 4.3 0.00 0.48 0.00 95 1011.8
20260510103711 49 301 0.0 0.0 0.00 0.48 0.00 95 1011.7
20260510102711 49 301 0.0 0.0 0.00 0.48 0.00 95 1011.3
20260510101708 48 301 0.0 0.0 0.00 0.48 0.00 94 1011.3
20260510100710 48 301 0.0 0.0 0.00 0.48 0.00 94 1011.5
20260510095710 47 161 0.0 0.0 0.00 0.48 0.00 94 1011.5
20260510094708 46 151 0.0 0.0 0.00 0.48 0.00 94 1011.5
20260510093709 46 94 0.0 0.0 0.00 0.48 0.00 94 1011.6
20260510092709 46 95 0.0 0.0 0.00 0.48 0.00 94 1011.4
20260510091654 46 94 0.0 0.0 0.00 0.48 0.00 94 1011.4
20260510090654 46 94 0.0 0.0 0.00 0.48 0.00 94 1011.3
20260510085654 45 94 0.0 0.0 0.00 0.48 0.00 94 1011.3
20260510084655 45 94 0.0 0.0 0.00 0.48 0.00 94 1011.3
20260510083654 45 94 0.0 0.0 0.00 0.48 0.00 94 1011.3
20260510083043 45 94 0.0 0.0 0.00 0.48 0.00 94 1011.4
20260510082715 45 94 0.0 0.0 0.00 0.48 0.00 94 1011.4
20260510080644 44 94 0.0 0.0 0.00 0.48 0.00 93 1011.2
20260510075643 44 94 0.0 0.0 0.00 0.48 0.00 93 1011.3
20260510075128 45 94 0.0 0.0 0.00 0.48 0.00 93 1011.3
20260510073644 45 94 0.0 0.0 0.00 0.48 0.00 93 1011.1
20260510072645 45 94 0.0 0.0 0.00 0.48 0.00 93 1010.8
20260510071638 46 94 0.0 0.0 0.00 0.48 0.00 93 1010.8
20260510070638 46 94 0.0 0.0 0.00 0.48 0.00 93 1010.7
20260510065638 47 94 0.0 0.0 0.00 0.48 0.00 93 1010.6
20260510064636 47 94 0.0 0.0 0.00 0.48 0.00 93 1010.6
20260510063636 47 94 0.0 0.0 0.00 0.48 0.00 93 1011.1
20260510062635 47 94 0.0 0.0 0.00 0.48 0.00 94 1010.8
20260510061636 47 94 0.0 0.0 0.00 0.48 0.00 94 1010.8
20260510061116 47 94 0.0 0.0 0.00 0.48 0.00 94 1011.2
20260510055635 47 94 0.0 0.0 0.00 0.48 0.00 94 1011.2
20260510055602 47 94 0.0 0.0 0.00 0.48 0.00 94 1011.2
20260510054103 47 94 0.0 0.0 0.00 0.48 0.00 93 1011.3
20260510053124 47 94 0.0 0.0 0.00 0.48 0.00 93 1011.6
20260510052111 47 94 0.0 0.0 0.00 0.48 0.00 93 1011.6
20260510050622 47 94 0.0 0.0 0.00 0.48 0.00 93 1011.5
20260510045621 47 94 0.0 0.0 0.00 0.48 0.00 93 1011.4
20260510044623 47 94 0.0 0.0 0.00 0.48 0.00 93 1011.4
20260510043623 47 94 0.0 0.0 0.00 0.48 0.00 93 1011.7
20260510042616 47 94 0.0 0.0 0.00 0.48 0.00 93 1011.6
20260510041615 47 94 0.0 0.0 0.00 0.48 0.00 93 1011.6
20260510040614 47 94 0.0 0.0 0.00 0.48 0.00 93 1011.7
20260510035614 47 94 0.0 0.0 0.00 0.48 0.48 93 1011.7
20260510034608 47 94 0.0 0.0 0.00 0.48 0.48 93 1011.7
20260510033607 47 94 0.0 0.0 0.00 0.48 0.48 93 1011.6
20260510033046 47 94 0.0 0.0 0.00 0.48 0.48 93 1011.8
20260510031606 47 94 0.0 0.0 0.00 0.48 0.48 93 1011.8
20260510030606 47 94 0.0 0.0 0.00 0.48 0.48 93 1012.1
20260510030043 47 94 0.0 0.0 0.00 0.48 0.48 93 1012.3
20260510024604 47 94 0.0 0.0 0.00 0.48 0.48 93 1012.3
20260510023606 47 94 0.0 0.0 0.00 0.48 0.48 93 1012.2
20260510023044 47 94 0.0 0.0 0.00 0.48 0.48 93 1012.3
20260510021604 47 94 0.0 0.0 0.00 0.48 0.48 93 1012.3
20260510021102 47 94 0.0 0.0 0.00 0.48 0.48 93 1012.3
20260510015603 47 94 0.0 0.0 0.00 0.48 0.48 93 1012.3
20260510014603 47 94 0.0 0.0 0.00 0.48 0.48 93 1012.3
20260510014522 47 94 0.0 0.0 0.01 0.48 0.48 93 1012.3
20260510012603 47 94 0.0 0.9 0.01 0.48 0.48 93 1012.3
20260510011602 47 94 0.0 2.6 0.02 0.48 0.48 93 1012.3
20260510010556 47 95 0.9 2.6 0.02 0.48 0.48 93 1012.1
20260510005555 47 125 0.0 2.6 0.02 0.48 0.48 93 1011.9
20260510004555 47 126 0.0 0.0 0.02 0.48 0.48 93 1011.9
20260510003555 47 126 0.0 0.0 0.02 0.47 0.47 92 1011.8
20260510002554 47 126 0.0 0.0 0.02 0.47 0.47 92 1012.1
20260510001551 47 126 0.0 1.7 0.02 0.46 0.46 92 1012.1
20260510000552 47 126 0.0 1.7 0.03 0.46 0.46 92 1012.3
20260509235551 47 126 0.0 2.6 0.04 0.46 0.46 92 1012.3
20260509234549 47 122 0.9 2.6 0.05 0.46 0.46 92 1012.3
20260509234026 47 122 0.0 1.7 0.05 0.45 0.45 92 1012.3
20260509232547 47 122 0.0 0.0 0.05 0.45 0.45 92 1012.2